DW4657 Weather Reports


Display with metric or nautical units.
time (UTC)temp
F
wind
direction
speed
MPH
gust
MPH
rain 1hr
in
rain 24hr
in
rain mn
in
humidity
%
barometer
mb
20260903035519 61 0 0.0 0.0 0.00 0.00 0.00 92 1018.8
20260903035023 61 0 0.0 0.0 0.00 0.00 0.00 92 1018.8
20260903034548 61 0 0.0 0.0 0.00 0.00 0.00 92 1018.9
20260903034026 61 0 0.0 0.0 0.00 0.00 0.00 92 1018.9
20260903033524 60 0 0.0 0.0 0.00 0.00 0.00 92 1019.1
20260903033046 60 0 0.0 0.0 0.00 0.00 0.00 91 1019.3
20260903032525 60 0 0.0 0.0 0.00 0.00 0.00 91 1019.3
20260903032025 60 0 0.0 1.0 0.00 0.00 0.00 91 1019.2
20260903031544 60 0 0.0 1.0 0.00 0.00 0.00 91 1019.2
20260903031025 60 0 0.0 1.0 0.00 0.00 0.00 91 1019.2
20260903030525 60 0 0.0 0.0 0.00 0.00 0.00 90 1019.5
20260903030042 60 0 0.0 0.0 0.00 0.00 0.00 90 1019.5
20260903025523 61 0 0.0 0.0 0.00 0.00 0.00 90 1019.6
20260903025023 61 0 0.0 0.0 0.00 0.00 0.00 90 1019.5
20260903024544 61 0 0.0 0.0 0.00 0.00 0.00 89 1019.5
20260903024024 61 0 0.0 0.0 0.00 0.00 0.00 89 1019.6
20260903023523 61 0 0.0 0.0 0.00 0.00 0.00 89 1019.7
20260903023053 62 0 0.0 0.0 0.00 0.00 0.00 88 1019.7
20260903022519 62 0 0.0 0.0 0.00 0.00 0.00 88 1019.7
20260903022019 62 0 0.0 0.0 0.00 0.00 0.00 88 1019.5
20260903021543 62 0 0.0 0.0 0.00 0.00 0.00 88 1019.5
20260903021024 63 0 0.0 1.0 0.00 0.00 0.00 88 1019.5
20260903020524 63 120 0.0 1.0 0.00 0.00 0.00 87 1019.4
20260903020043 63 0 0.0 0.0 0.00 0.00 0.00 88 1019.5
20260903015525 63 0 0.0 1.0 0.00 0.00 0.00 88 1019.5
20260903015019 63 0 0.0 1.0 0.00 0.00 0.00 87 1019.4
20260903014552 63 127 0.0 1.0 0.00 0.00 0.00 87 1019.4
20260903014018 63 0 0.0 1.0 0.00 0.00 0.00 87 1019.6
20260903013524 63 0 0.0 2.0 0.00 0.00 0.00 87 1019.6
20260903013048 63 117 0.0 2.0 0.00 0.00 0.00 87 1019.6
20260903012524 63 0 0.0 1.0 0.00 0.00 0.00 87 1019.6
20260903012024 63 113 0.0 1.0 0.00 0.00 0.00 87 1019.6
20260903011546 63 0 0.0 1.0 0.00 0.00 0.00 86 1019.7
20260903011024 63 0 0.0 1.0 0.00 0.00 0.00 86 1019.9
20260903010525 64 0 0.0 1.0 0.00 0.00 0.00 85 1019.8
20260903010048 64 0 0.0 1.0 0.00 0.00 0.00 85 1019.9
20260903005522 64 0 0.0 0.0 0.00 0.00 0.00 84 1020.0
20260903005023 65 0 0.0 0.0 0.00 0.00 0.00 84 1020.0
20260903004542 65 0 0.0 1.0 0.00 0.00 0.00 84 1020.0
20260903004025 65 0 0.0 1.0 0.00 0.00 0.00 84 1019.9
20260903003525 65 111 0.0 1.0 0.00 0.00 0.00 84 1019.9
20260903003046 65 0 0.0 1.0 0.00 0.00 0.00 84 1020.0
20260903002528 65 0 0.0 1.0 0.00 0.00 0.00 84 1019.8
20260903002024 65 0 0.0 1.0 0.00 0.00 0.00 84 1020.0
20260903001549 65 0 0.0 0.0 0.00 0.00 0.00 84 1020.2
20260903001021 65 0 0.0 0.0 0.00 0.00 0.00 83 1020.3
20260903000519 65 0 0.0 0.0 0.00 0.00 0.00 83 1020.4
20260903000046 65 0 0.0 0.0 0.00 0.00 0.00 82 1020.6
20260902235524 66 0 0.0 0.0 0.00 0.00 0.00 82 1020.6
20260902235023 66 0 0.0 0.0 0.00 0.00 0.00 81 1020.7
20260902234559 66 0 0.0 0.0 0.00 0.00 0.00 80 1020.6
20260902234027 67 0 0.0 0.0 0.00 0.00 0.00 80 1020.6
20260902233524 67 0 0.0 1.0 0.00 0.00 0.00 79 1020.4
20260902233044 67 0 0.0 1.0 0.00 0.00 0.00 79 1020.5
20260902232519 67 0 0.0 1.0 0.00 0.00 0.00 79 1020.4
20260902232023 67 0 0.0 1.0 0.00 0.00 0.00 78 1020.4
20260902231545 67 0 0.0 1.0 0.00 0.00 0.00 78 1020.4
20260902231024 68 0 0.0 1.0 0.00 0.00 0.00 78 1020.4
20260902230524 68 119 0.0 1.0 0.00 0.00 0.00 77 1020.4
20260902230046 68 0 0.0 2.0 0.00 0.00 0.00 77 1020.4
20260902225524 68 122 0.0 3.0 0.00 0.00 0.00 76 1020.4
20260902225025 68 131 0.0 3.0 0.00 0.00 0.00 75 1020.6
20260902224546 68 0 0.0 2.0 0.00 0.00 0.00 75 1020.6
20260902224024 69 93 0.0 2.0 0.00 0.00 0.00 75 1020.5
20260902223518 69 0 0.0 2.0 0.00 0.00 0.00 75 1020.5
20260902223046 69 0 0.0 1.0 0.00 0.00 0.00 74 1020.4
20260902222524 69 0 0.0 3.0 0.00 0.00 0.00 75 1020.6
20260902222024 69 64 0.0 8.0 0.00 0.00 0.00 74 1020.5
20260902221548 69 133 0.0 8.0 0.00 0.00 0.00 74 1020.6
20260902221025 69 0 1.0 6.0 0.00 0.00 0.00 73 1020.4
20260902220524 70 143 2.0 6.0 0.00 0.00 0.00 72 1020.4
20260902220044 70 89 2.0 9.0 0.00 0.00 0.00 71 1020.6
20260902215522 70 121 1.0 9.0 0.00 0.00 0.00 70 1020.4
20260902215019 70 69 2.0 8.0 0.00 0.00 0.00 70 1020.6
20260902214545 71 0 0.0 4.0 0.00 0.00 0.00 70 1020.5
20260902214020 71 158 1.0 5.0 0.00 0.00 0.00 69 1020.4
20260902213524 71 0 0.0 5.0 0.00 0.00 0.00 70 1020.2
20260902213044 71 159 1.0 6.0 0.00 0.00 0.00 70 1020.1
20260902212523 71 99 2.0 6.0 0.00 0.00 0.00 69 1020.0
20260902212026 72 131 0.0 4.0 0.00 0.00 0.00 68 1020.1
20260902211543 72 18 0.0 2.0 0.00 0.00 0.00 67 1020.3
20260902211026 72 86 0.0 4.0 0.00 0.00 0.00 67 1020.6
20260902210519 72 100 1.0 4.0 0.00 0.00 0.00 67 1020.5
20260902210042 72 0 0.0 7.0 0.00 0.00 0.00 66 1020.7
20260902205525 72 188 3.0 7.0 0.00 0.00 0.00 65 1020.6
20260902205024 72 86 1.0 3.0 0.00 0.00 0.00 68 1020.7
20260902204549 72 0 0.0 2.0 0.00 0.00 0.00 66 1020.7
20260902204024 73 101 0.0 2.0 0.00 0.00 0.00 66 1020.6
20260902203526 73 39 0.0 3.0 0.00 0.00 0.00 66 1020.5
20260902203045 73 30 1.0 3.0 0.00 0.00 0.00 67 1020.6
20260902202522 73 32 1.0 4.0 0.00 0.00 0.00 65 1020.6
20260902202024 74 24 0.0 6.0 0.00 0.00 0.00 65 1020.6
20260902201542 74 347 1.0 8.0 0.00 0.00 0.00 64 1020.4
20260902201024 74 132 4.0 8.0 0.00 0.00 0.00 64 1020.5
20260902200521 75 153 1.0 6.0 0.00 0.00 0.00 62 1020.3
20260902200045 75 57 3.0 6.0 0.00 0.00 0.00 62 1020.4
20260902195525 76 91 2.0 6.0 0.00 0.01 0.00 63 1020.5
20260902195025 76 307 1.0 6.0 0.00 0.01 0.00 62 1020.7
20260902194544 76 136 1.0 5.0 0.00 0.01 0.00 63 1020.8
20260902194025 75 349 1.0 5.0 0.00 0.01 0.00 62 1020.7
20260902193523 75 45 2.0 5.0 0.00 0.01 0.00 64 1020.9
20260902193042 75 6 1.0 4.0 0.00 0.01 0.00 63 1020.9
20260902192524 75 348 2.0 5.0 0.00 0.01 0.00 63 1021.0
20260902192024 74 89 1.0 5.0 0.00 0.01 0.00 66 1021.1
20260902191549 74 106 1.0 8.0 0.00 0.01 0.00 67 1021.1
20260902191026 74 79 3.0 8.0 0.00 0.01 0.00 65 1021.1
20260902190527 75 113 4.0 8.0 0.00 0.01 0.00 65 1021.0
20260902190046 75 119 1.0 8.0 0.00 0.01 0.00 66 1020.9
20260902185525 75 181 3.0 9.0 0.00 0.04 0.00 65 1020.8
20260902185025 75 60 5.0 9.0 0.00 0.04 0.00 66 1020.9
20260902184541 75 127 3.0 8.0 0.00 0.04 0.00 64 1021.0
20260902184024 75 172 4.0 8.0 0.00 0.04 0.00 63 1020.9
20260902183524 75 9 2.0 7.0 0.00 0.04 0.00 62 1020.8
20260902183045 75 234 2.0 7.0 0.00 0.04 0.00 64 1020.9
20260902182523 75 214 2.0 5.0 0.00 0.04 0.00 62 1020.9
20260902182029 75 304 2.0 7.0 0.00 0.04 0.00 63 1020.9
20260902181553 76 110 2.0 7.0 0.00 0.04 0.00 63 1020.8
20260902181023 75 77 2.0 7.0 0.00 0.04 0.00 63 1020.9
20260902180523 75 176 2.0 7.0 0.00 0.04 0.00 64 1020.9
20260902180054 74 341 1.0 7.0 0.00 0.04 0.00 66 1020.8
20260902175524 74 123 2.0 7.0 0.00 0.05 0.00 67 1020.9
20260902175025 74 155 3.0 7.0 0.00 0.05 0.00 68 1021.0
20260902174543 74 101 1.0 8.0 0.00 0.05 0.00 66 1021.1
20260902174024 74 98 4.0 8.0 0.00 0.05 0.00 66 1021.2
20260902173524 74 136 2.0 8.0 0.00 0.05 0.00 65 1021.0
20260902173046 75 86 2.0 5.0 0.00 0.05 0.00 62 1021.1
20260902172526 75 57 2.0 5.0 0.00 0.05 0.00 62 1021.4
20260902172024 75 53 1.0 6.0 0.00 0.05 0.00 63 1021.3
20260902171558 74 33 2.0 6.0 0.00 0.05 0.00 61 1021.4
20260902171024 75 347 2.0 6.0 0.00 0.05 0.00 59 1021.5
20260902170526 75 8 1.0 5.0 0.00 0.05 0.00 61 1021.5
20260902170047 75 41 2.0 5.0 0.00 0.05 0.00 61 1021.3
20260902165525 74 352 1.0 6.0 0.00 0.05 0.00 63 1021.3
20260902165030 74 110 2.0 9.0 0.00 0.05 0.00 63 1021.4
20260902164545 74 214 3.0 9.0 0.00 0.05 0.00 62 1021.6
20260902164024 75 111 2.0 7.0 0.00 0.05 0.00 63 1021.4
20260902163524 74 186 2.0 5.0 0.00 0.05 0.00 64 1021.4
20260902163042 74 30 2.0 5.0 0.00 0.05 0.00 64 1021.4
20260902162524 74 172 2.0 6.0 0.00 0.05 0.00 64 1021.4
20260902162024 74 123 1.0 6.0 0.00 0.05 0.00 66 1021.5
20260902161557 73 108 1.0 6.0 0.00 0.05 0.00 68 1021.5
20260902161025 73 140 1.0 7.0 0.00 0.05 0.00 67 1021.5
20260902160526 72 47 4.0 9.0 0.00 0.05 0.00 67 1021.6
20260902160049 72 60 4.0 9.0 0.00 0.05 0.00 65 1021.8
20260902155525 72 65 5.0 9.0 0.00 0.05 0.00 66 1021.9
20260902155027 72 118 3.0 10.0 0.00 0.05 0.00 66 1022.0
20260902154544 72 143 3.0 10.0 0.00 0.05 0.00 68 1022.0
20260902154024 73 93 4.0 8.0 0.00 0.05 0.00 66 1021.9
20260902153526 73 107 2.0 7.0 0.00 0.05 0.00 68 1022.0
20260902153044 72 107 2.0 9.0 0.00 0.05 0.00 71 1021.9
20260902152526 72 119 4.0 9.0 0.00 0.05 0.00 70 1021.9
20260902152024 72 71 4.0 11.0 0.00 0.05 0.00 68 1021.9
20260902151541 72 155 3.0 11.0 0.00 0.05 0.00 71 1021.9
20260902151023 71 137 4.0 8.0 0.00 0.05 0.00 74 1022.0
20260902150527 71 140 1.0 6.0 0.00 0.05 0.00 75 1021.9
20260902150045 71 127 2.0 7.0 0.00 0.05 0.00 76 1021.9
20260902145524 70 113 4.0 7.0 0.00 0.05 0.00 76 1021.9
20260902145025 70 51 2.0 5.0 0.00 0.05 0.00 76 1021.8
20260902144543 70 33 1.0 5.0 0.00 0.05 0.00 76 1021.9
20260902144023 70 136 1.0 6.0 0.00 0.05 0.00 77 1021.7
20260902143522 70 0 0.0 6.0 0.00 0.05 0.00 77 1021.7
20260902143044 70 344 1.0 7.0 0.00 0.05 0.00 77 1021.6
20260902142520 70 13 2.0 7.0 0.00 0.05 0.00 77 1021.6
20260902142024 70 84 2.0 7.0 0.00 0.05 0.00 79 1021.5
20260902141540 70 12 2.0 6.0 0.00 0.05 0.00 80 1021.3
20260902141025 69 43 1.0 6.0 0.00 0.05 0.00 79 1021.2
20260902140524 69 99 1.0 4.0 0.00 0.05 0.00 81 1021.1
20260902140045 69 6 0.0 2.0 0.00 0.05 0.00 81 1021.3
20260902135521 68 125 0.0 2.0 0.00 0.05 0.00 82 1021.1
20260902135018 68 0 0.0 3.0 0.00 0.05 0.00 82 1021.0
20260902134546 68 326 1.0 5.0 0.00 0.05 0.00 82 1020.8
20260902134022 68 38 2.0 5.0 0.00 0.05 0.00 81 1020.9
20260902133524 68 25 1.0 4.0 0.00 0.05 0.00 85 1020.9
20260902133045 67 156 0.0 2.0 0.00 0.05 0.00 86 1020.8
20260902132528 67 41 1.0 5.0 0.00 0.05 0.00 86 1021.0
20260902132023 67 121 1.0 5.0 0.00 0.05 0.00 86 1021.1
20260902131544 67 0 1.0 4.0 0.00 0.05 0.00 87 1021.2
20260902131021 66 356 0.0 3.0 0.00 0.05 0.00 88 1021.2
20260902130519 66 0 0.0 3.0 0.00 0.05 0.00 90 1021.2
20260902130044 66 0 0.0 4.0 0.00 0.05 0.00 90 1021.2
20260902125526 65 15 1.0 4.0 0.00 0.05 0.00 91 1021.3
20260902125025 65 0 1.0 3.0 0.00 0.05 0.00 92 1021.4
20260902124545 65 0 0.0 3.0 0.00 0.05 0.00 93 1021.5
20260902124023 65 0 1.0 3.0 0.00 0.05 0.00 94 1021.5
20260902123524 65 0 0.0 2.0 0.00 0.05 0.00 95 1021.6
20260902123045 65 0 0.0 2.0 0.00 0.05 0.00 96 1021.4
20260902122524 64 0 0.0 2.0 0.00 0.05 0.00 96 1021.4
20260902122018 64 25 0.0 1.0 0.00 0.05 0.00 97 1021.5
20260902121541 64 0 0.0 2.0 0.00 0.05 0.00 97 1021.7
20260902121018 64 0 0.0 2.0 0.00 0.05 0.00 97 1021.7
20260902120525 63 63 0.0 1.0 0.00 0.05 0.00 97 1021.7
20260902120048 63 96 0.0 1.0 0.00 0.05 0.00 97 1021.7
20260902115524 62 0 0.0 1.0 0.00 0.05 0.00 97 1021.8
20260902115025 62 0 0.0 1.0 0.00 0.05 0.00 98 1021.9
20260902114605 62 0 0.0 0.0 0.00 0.05 0.00 98 1021.8
20260902114027 61 0 0.0 0.0 0.00 0.05 0.00 97 1021.8
20260902113523 60 0 0.0 0.0 0.00 0.05 0.00 97 1021.7
20260902113053 60 0 0.0 0.0 0.00 0.05 0.00 97 1021.7
20260902112520 60 0 0.0 0.0 0.00 0.05 0.00 97 1021.6
20260902112022 60 0 0.0 0.0 0.00 0.05 0.00 97 1021.5
20260902111551 59 0 0.0 0.0 0.00 0.05 0.00 97 1021.5
20260902111025 59 0 0.0 0.0 0.00 0.05 0.00 97 1021.6
20260902110525 59 0 0.0 1.0 0.00 0.05 0.00 97 1021.4
20260902110047 59 0 0.0 1.0 0.00 0.05 0.00 97 1021.2
20260902105527 59 0 0.0 0.0 0.00 0.05 0.00 96 1021.1
20260902105025 59 0 0.0 0.0 0.00 0.05 0.00 96 1021.0
20260902104546 59 0 0.0 0.0 0.00 0.05 0.00 96 1021.0
20260902104025 58 0 0.0 0.0 0.00 0.05 0.00 96 1021.0
20260902103524 58 0 0.0 0.0 0.00 0.05 0.00 96 1020.8
20260902103045 58 0 0.0 0.0 0.00 0.05 0.00 96 1020.9
20260902102525 58 0 0.0 0.0 0.00 0.05 0.00 96 1020.8
20260902102026 58 0 0.0 0.0 0.00 0.05 0.00 96 1020.6
20260902101540 58 0 0.0 0.0 0.00 0.05 0.00 96 1020.5
20260902101028 58 0 0.0 0.0 0.00 0.05 0.00 96 1020.4
20260902100524 58 0 0.0 0.0 0.00 0.05 0.00 96 1020.3
20260902100046 58 0 0.0 0.0 0.00 0.05 0.00 96 1020.3
20260902095523 59 0 0.0 0.0 0.00 0.05 0.00 96 1020.4
20260902095026 59 0 0.0 0.0 0.00 0.05 0.00 96 1020.4
20260902094545 59 0 0.0 0.0 0.00 0.05 0.00 96 1020.3
20260902094022 59 0 0.0 0.0 0.00 0.05 0.00 96 1020.2
20260902093524 59 0 0.0 0.0 0.00 0.05 0.00 96 1020.2
20260902093041 59 0 0.0 0.0 0.00 0.05 0.00 96 1020.3
20260902092524 59 0 0.0 0.0 0.00 0.05 0.00 96 1020.3
20260902092025 59 0 0.0 0.0 0.00 0.05 0.00 96 1020.4
20260902091553 59 0 0.0 0.0 0.00 0.05 0.00 96 1020.4
20260902091025 59 0 0.0 0.0 0.00 0.05 0.00 96 1020.4
20260902090523 59 0 0.0 0.0 0.00 0.05 0.00 96 1020.3
20260902090050 59 0 0.0 0.0 0.00 0.05 0.00 96 1020.2
20260902085518 59 0 0.0 0.0 0.00 0.05 0.00 96 1020.3
20260902085021 59 0 0.0 0.0 0.00 0.05 0.00 96 1020.2
20260902084542 59 0 0.0 0.0 0.00 0.05 0.00 96 1020.2
20260902084023 59 0 0.0 0.0 0.00 0.05 0.00 96 1020.1
20260902083523 60 0 0.0 0.0 0.00 0.05 0.00 95 1020.1
20260902083046 60 0 0.0 0.0 0.00 0.05 0.00 95 1020.1
20260902082524 60 0 0.0 0.0 0.00 0.05 0.00 96 1020.1
20260902082024 60 0 0.0 0.0 0.00 0.05 0.00 96 1020.0
20260902081544 60 0 0.0 0.0 0.00 0.05 0.00 96 1020.1
20260902081023 60 0 0.0 0.0 0.00 0.05 0.00 96 1020.1
20260902080524 60 0 0.0 0.0 0.00 0.05 0.00 96 1020.1
20260902080042 60 0 0.0 0.0 0.00 0.05 0.00 96 1020.2
20260902075521 60 0 0.0 0.0 0.00 0.05 0.00 96 1020.2
20260902075024 60 0 0.0 0.0 0.00 0.05 0.00 96 1020.3
20260902074555 60 0 0.0 0.0 0.00 0.05 0.00 96 1020.4
20260902074025 60 0 0.0 0.0 0.00 0.05 0.00 96 1020.4
20260902073524 60 0 0.0 0.0 0.00 0.05 0.00 96 1020.2
20260902073044 60 0 0.0 0.0 0.00 0.05 0.00 96 1020.3
20260902072524 60 0 0.0 0.0 0.00 0.05 0.00 96 1020.1
20260902072026 60 0 0.0 0.0 0.00 0.05 0.00 96 1020.0
20260902071543 60 0 0.0 0.0 0.00 0.05 0.00 96 1019.9
20260902071025 60 0 0.0 0.0 0.00 0.05 0.00 96 1019.9
20260902070524 60 0 0.0 0.0 0.00 0.05 0.00 96 1019.9
20260902070041 60 0 0.0 0.0 0.00 0.05 0.00 96 1019.9
20260902065521 60 0 0.0 0.0 0.00 0.05 0.00 96 1020.0
20260902065024 60 0 0.0 0.0 0.00 0.05 0.00 96 1020.1
20260902064541 60 0 0.0 0.0 0.00 0.05 0.00 96 1020.0
20260902064023 60 0 0.0 0.0 0.00 0.05 0.00 96 1020.0
20260902063524 60 0 0.0 0.0 0.00 0.05 0.00 96 1019.9
20260902063043 60 0 0.0 0.0 0.00 0.05 0.00 96 1019.9
20260902062525 60 0 0.0 0.0 0.00 0.05 0.00 96 1020.1
20260902062019 60 0 0.0 0.0 0.00 0.05 0.00 96 1020.1
20260902061548 60 0 0.0 0.0 0.00 0.05 0.00 96 1020.1
20260902061024 60 0 0.0 0.0 0.00 0.05 0.00 96 1020.1
20260902060523 60 0 0.0 0.0 0.00 0.05 0.00 96 1020.1
20260902060056 60 0 0.0 0.0 0.00 0.05 0.00 96 1020.1
20260902055526 60 0 0.0 0.0 0.00 0.05 0.00 96 1020.2
20260902055025 60 0 0.0 0.0 0.00 0.05 0.00 96 1020.1
20260902054544 60 0 0.0 0.0 0.00 0.05 0.00 95 1020.1
20260902054026 60 0 0.0 0.0 0.00 0.05 0.00 95 1020.1
20260902053519 60 0 0.0 0.0 0.00 0.05 0.00 95 1019.9
20260902053057 60 0 0.0 0.0 0.00 0.05 0.00 96 1020.0
20260902052524 60 0 0.0 0.0 0.00 0.05 0.00 96 1020.1
20260902052026 60 0 0.0 1.0 0.00 0.05 0.00 95 1020.0
20260902051543 60 0 0.0 1.0 0.00 0.05 0.00 95 1020.0
20260902051024 60 0 0.0 0.0 0.00 0.05 0.00 95 1020.1
20260902050525 60 0 0.0 0.0 0.00 0.05 0.00 95 1020.2
20260902050047 60 0 0.0 0.0 0.00 0.05 0.00 95 1020.2
20260902045523 60 0 0.0 0.0 0.00 0.05 0.00 95 1019.9
20260902045026 60 0 0.0 0.0 0.00 0.05 0.00 95 1019.9
20260902044546 61 0 0.0 0.0 0.00 0.05 0.00 95 1019.8
20260902044022 61 0 0.0 0.0 0.00 0.05 0.00 95 1019.9
20260902043519 61 0 0.0 1.0 0.00 0.05 0.00 95 1019.7
20260902043040 61 0 0.0 1.0 0.00 0.05 0.00 95 1019.4
20260902042525 61 0 0.0 0.0 0.00 0.05 0.00 95 1019.3
20260902042024 61 0 0.0 1.0 0.00 0.05 0.00 95 1019.2
20260902041545 61 0 0.0 1.0 0.00 0.05 0.00 95 1019.4
20260902041024 61 0 0.0 0.0 0.00 0.05 0.00 95 1019.3
20260902040524 61 0 0.0 0.0 0.00 0.05 0.00 95 1019.3
20260902040044 61 0 0.0 0.0 0.00 0.05 0.00 95 1019.1